Miscellaneous Local Product
Issued by NWS North Platte, NE

Home | Current Version | Previous Version | Graphics & Text | Print | Product List | Glossary On
Versions: 1 2 3 4 5 6 7 8 9 10 11 12 13 14 15 16 17 18 19 20 21 22 23 24 25 26 27 28 29 30 31 32 33 34 35 36 37 38 39 40 41 42 43 44 45 46 47 48 49 50
000
AXUS43 KLBF 012110
MISLBF


WESTERN AND NORTH CENTRAL NEBRASKA HOURLY WEATHER ROUNDUP
NATIONAL WEATHER SERVICE NORTH PLATTE NE
400 PM CDT MON SEP 01 2014

***STATIONS NOT REPORTING VARIABLES SUCH AS SKY/WEATHER OR
PRESSURE ARE PROVIDED BY THE NEBRASKA DEPARTMENT OF
ROADS...RAWS...AND APRS NETWORKS...AND ARE NOT UNDER
NATIONAL WEATHER SERVICE QUALITY CONTROL***

...OBSERVATIONS IN AND NEAR THE EASTERN PANHANDLE OF NEBRASKA...

CITY           SKY/WX    TMP DP  RH WIND       PRES   REMARKS
PINE RIDGE     MOSUNNY   74  45  35 NW10G17   29.88F
CHADRON        TSTM      70  49  47 W23G29    29.90S
ALLIANCE       MOSUNNY   75  43  31 SW15G23   29.90F
SIDNEY         MOSUNNY   78  46  32 SW16G22   29.97F
WHITECLAY        N/A     73  47  39 NW8         N/A
RUSHVILLE        N/A     71  38  29 SW13        N/A
GORDON           N/A     78  42  26 NE12        N/A
CRESCENT LAKE    N/A     78  49  35 S5G25       N/A
LISCO            N/A     82  34  17 S6          N/A
BIG SPRINGS      N/A     75  55  50 W3          N/A
$$

...OBSERVATIONS IN NORTH CENTRAL NEBRASKA...

CITY           SKY/WX    TMP DP  RH WIND       PRES   REMARKS
VALENTINE      SUNNY     78  45  30 CALM      29.87F
THEDFORD       PTSUNNY   79  49  34 SW8       29.91F
AINSWORTH      SUNNY     75  45  34 CALM      29.89F
O`NEILL        SUNNY     77  53  42 NW6       29.89F
ORD            MOSUNNY   75  53  46 VRB5      29.89F
BROKEN BOW     MOSUNNY   77  52  41 S5        29.91F
SPRINGVIEW       N/A     81  50  33 CALM        N/A
ROSE             N/A     81  55  39 S3          N/A
NEWPORT          N/A     78  51  38 SW3         N/A
COMSTOCK         N/A     82  57  42 W7          N/A
CHAMBERS         N/A     80  53  38 NW3         N/A
EWING            N/A     78  55  44 CALM        N/A
$$

...OBSERVATIONS IN SOUTHWEST NEBRASKA AND FAR NORTHEAST COLORADO...

CITY           SKY/WX    TMP DP  RH WIND       PRES   REMARKS
WRAY             N/A     79  47  32 SE7       29.96F
HOLYOKE        FAIR      79  52  38 CALM      29.96F
IMPERIAL       MOSUNNY   76  47  35 SW6       29.96F
OGALLALA       SUNNY     74  53  47 S10       29.93F
NORTH PLATTE   MOSUNNY   75  56  51 S13       29.93F
MCCOOK         MOSUNNY   77  51  40 N3        29.94F
LEXINGTON      PTSUNNY   70  58  65 CALM      29.94F
PAXTON           N/A     76  53  44 CALM        N/A
SUTHERLAND       N/A     77  52  41 S13         N/A
BRADY            N/A     73  59  60 CALM        N/A
GOTHENBURG       N/A     70  53  53 S7          N/A
CALLAWAY         N/A     75  58  55 W8          N/A
$$

...SOME WEATHER OBSERVATIONS FROM AROUND THE REGION...

CITY           SKY/WX    TMP DP  RH WIND       PRES   REMARKS
DENVER         MOSUNNY   78  39  24 CALM      30.00F
LARAMIE        MOSUNNY   67  32  27 W25G38    30.09F
CHEYENNE       MOSUNNY   75  31  19 W21G32    30.03F
SCOTTSBLUFF    SUNNY     80  39  23 W17G29    29.90F
RAPID CITY     LGT RAIN  59  51  75 N14       29.96F
PIERRE         CLOUDY    76  49  38 SW12      29.79F
WINNER         FAIR      79  48  33 VRB5      29.84F
SIOUX FALLS    MOSUNNY   76  59  55 NW8       29.84F
OMAHA          PTSUNNY   79  60  52 W3        29.87F
GRAND ISLAND   PTSUNNY   74  56  53 W8        29.92S
KANSAS CITY    CLOUDY    78  69  73 W8        29.89F
WICHITA        PTSUNNY   86  69  56 E10       29.82F HX  90
HAYS           PTSUNNY   79  61  53 N6        29.91F
LIBERAL        SUNNY     84  63  48 E10       29.91F
GOODLAND       SUNNY     80  47  31 VRB3      29.97F
$$



USA.gov is the U.S. government's official web portal to all federal, state and local government web resources and services.